Theta_e
331 322 320 319 308 308 305 309 314 313 317 322 323 321 320 330 327 324 346 347 351 356 361 362 366 368 367 365 364 362 361 362 362 362 362 360 360 361 362 362 361 362 362 360 359 358 356 355 354
323 319 319 315 305 302 305 313 312 316 320 323 322 321 320 332 342 341 343 352 354 358 360 360 366 367 367 365 363 362 361 362 362 362 362 360 360 361 362 362 361 360 360 360 358 357 355 354 353
323 323 312 308 306 303 306 314 316 319 322 321 319 323 323 337 342 347 352 355 357 359 361 364 366 366 366 365 363 361 361 361 362 362 361 359 360 361 362 362 362 360 356 356 356 355 355 354 353
313 315 312 303 303 308 310 314 318 319 322 322 321 318 326 337 348 355 352 358 356 359 359 363 365 365 365 364 363 361 361 361 361 362 361 359 361 361 362 362 361 359 356 355 355 356 356 355 355
315 310 301 300 302 308 313 316 317 317 320 320 321 317 324 338 351 357 353 358 356 356 362 362 364 365 365 364 363 362 361 361 361 361 360 360 361 361 361 361 360 359 358 357 355 356 356 356 355
307 306 297 297 301 306 311 315 317 317 320 321 319 319 325 340 350 353 352 355 356 354 359 359 364 364 363 363 363 362 361 361 361 360 360 360 360 360 360 359 359 359 358 359 357 357 356 356 355
306 302 298 299 300 304 308 314 313 315 318 319 323 317 324 335 349 352 352 355 354 357 357 355 359 363 363 362 362 361 360 359 359 359 359 359 360 359 359 359 359 358 358 358 358 356 356 355 355
311 306 299 300 299 301 309 311 313 313 314 324 326 317 319 338 348 353 352 353 353 356 354 351 353 357 359 359 361 361 360 360 359 358 358 359 359 358 358 356 358 358 358 358 357 356 355 355 355
315 302 299 300 301 303 309 308 313 316 314 320 323 324 333 342 344 351 351 351 352 353 353 350 349 351 351 354 358 359 359 359 358 359 358 356 352 354 354 353 356 357 357 357 356 355 355 355 355
310 304 302 307 307 306 308 309 310 310 311 312 317 321 330 340 339 342 346 346 348 350 350 349 349 346 345 346 355 354 355 355 355 353 354 351 350 352 349 352 356 357 356 356 355 355 355 352 344
310 304 308 308 311 312 310 309 311 309 306 310 310 314 321 333 336 337 343 347 347 351 351 349 350 349 345 345 349 347 349 349 350 351 352 351 347 352 347 352 351 352 353 348 350 349 347 343 342
304 309 309 310 312 311 310 313 310 309 309 313 313 315 317 323 326 333 337 343 347 350 351 350 351 350 350 351 347 348 348 349 347 349 353 348 351 356 349 347 349 350 349 347 347 343 342 340 339
303 305 309 311 310 310 311 310 310 310 312 314 314 315 315 319 324 333 338 341 351 349 352 352 352 352 354 351 350 349 350 350 351 351 353 349 351 357 354 354 354 349 348 349 347 346 347 343 342
308 307 307 309 310 310 307 308 310 310 314 313 312 313 314 315 322 328 336 339 345 353 352 351 352 356 360 362 354 353 356 353 355 353 353 354 356 358 356 358 355 353 353 351 350 348 350 348 345
308 304 307 308 309 308 310 305 306 311 313 312 312 312 313 316 317 321 329 338 346 351 353 346 355 361 363 370 360 355 358 354 355 358 358 357 359 363 353 358 354 355 355 357 353 352 349 346 346
304 304 300 306 308 308 308 300 307 311 310 310 312 312 313 314 316 318 322 337 345 356 355 354 360 363 364 367 366 358 363 359 355 356 358 358 361 361 361 357 353 354 358 354 353 350 347 345 345
301 296 298 301 307 307 305 302 307 311 311 310 312 312 312 314 316 319 323 330 346 358 361 358 361 361 362 364 366 366 369 361 365 358 360 359 361 361 361 359 357 362 355 355 353 353 348 346 349
295 295 298 298 303 305 303 303 306 310 309 310 311 312 313 314 315 318 324 325 349 358 362 362 360 360 363 363 370 364 365 367 363 360 360 365 362 361 361 359 359 357 354 350 351 346 349 347 347
300 298 297 301 306 303 304 303 305 309 310 308 310 311 312 314 317 318 321 325 349 362 360 360 356 359 361 359 359 357 355 360 362 363 362 364 363 361 362 360 356 357 354 354 352 347 343 341 342
299 297 298 302 305 305 304 303 306 308 309 310 311 312 313 314 317 318 323 327 351 360 356 359 356 358 357 356 359 357 355 356 357 354 357 361 359 359 358 355 354 356 355 352 349 344 341 340 339
297 296 298 298 304 306 304 302 304 307 310 311 311 313 314 314 316 318 320 334 353 347 340 350 350 355 354 355 356 357 358 359 352 355 358 359 357 356 356 357 356 353 352 347 343 342 339 334 337
292 300 300 299 299 295 304 293 303 305 307 309 311 312 313 315 317 318 321 335 348 351 343 338 346 352 352 353 355 355 350 347 351 352 355 356 356 356 355 354 352 352 349 346 344 344 337 336 332
294 301 299 299 298 299 299 295 300 305 304 307 310 311 313 315 316 316 322 333 338 347 353 350 353 350 354 353 354 351 351 352 353 353 353 356 356 351 351 351 352 349 349 346 345 343 344 343 338
299 297 298 299 297 290 297 296 296 300 304 308 311 312 313 314 316 317 323 328 334 341 349 354 354 352 352 352 349 353 352 351 348 347 348 348 349 351 351 348 350 350 349 344 344 344 345 343 339
298 294 288 286 287 287 298 296 299 305 308 310 311 312 313 315 316 317 319 322 327 335 347 351 347 346 346 348 351 353 355 351 350 348 345 346 344 346 348 348 348 348 347 346 345 344 341 339 337
294 295 288 282 284 288 297 293 298 308 311 313 314 314 314 315 316 316 317 321 323 331 347 345 344 343 343 346 350 353 355 349 347 350 347 344 343 342 344 342 340 340 340 339 339 337 337 338 334
293 290 298 292 295 291 294 298 303 307 309 312 312 313 313 315 315 317 318 321 335 345 343 343 343 344 345 343 345 345 347 347 343 345 344 339 340 337 338 339 337 336 335 335 336 332 331 334 333
296 299 291 293 285 285 292 293 295 302 306 310 315 313 313 314 315 317 327 339 340 340 340 342 341 339 337 338 337 336 337 339 338 336 334 334 334 334 333 332 332 332 331 331 331 329 328 326 326
295 292 296 297 294 288 288 293 304 305 309 312 316 319 323 325 328 331 332 334 334 335 337 336 337 335 335 333 332 331 330 330 330 329 328 328 328 328 325 325 325 323 325 325 326 325 323 322 320
298 294 296 290 290 294 294 296 313 310 315 316 313 317 322 325 327 329 330 330 332 332 333 334 330 327 326 326 325 325 325 324 322 321 321 322 321 322 319 320 318 317 317 319 318 317 317 317 316
Wind_Speed
12 13 10 10 8 9 18 20 23 24 4 3 9 9 13 13 16 7 10 9 23 21 16 17 16 17 17 17 16 15 14 14 15 15 14 13 12 11 11 11 10 10 10 11 10 9 8 8 8
12 14 11 7 12 15 16 22 25 21 5 8 7 8 11 19 20 21 20 21 21 20 15 16 16 17 17 16 16 15 15 15 15 14 13 12 11 11 10 11 10 10 10 10 9 8 8 8 7
13 18 9 7 16 18 19 23 20 22 15 9 5 0 9 14 19 14 16 22 22 17 15 15 16 17 17 18 18 16 16 17 16 15 14 13 12 10 8 10 9 9 9 9 8 8 7 7 7
8 9 8 16 22 27 30 25 28 16 12 12 6 6 5 10 6 12 17 24 19 18 16 18 17 17 17 17 17 17 16 16 16 16 16 15 14 12 11 10 9 8 8 8 9 8 7 7 7
12 8 12 19 27 29 25 29 29 26 10 11 10 10 7 13 14 14 15 21 19 18 17 17 16 16 16 17 17 17 17 15 15 15 14 13 13 12 11 10 8 8 8 8 8 7 7 7 7
10 13 16 20 24 28 28 27 27 25 23 12 13 11 2 14 15 14 15 19 19 18 17 16 16 16 16 16 17 16 16 15 15 14 14 13 12 11 10 8 8 8 8 8 7 6 6 7 7
19 15 20 24 22 26 26 26 28 25 20 13 11 11 11 17 18 17 16 17 17 19 17 15 14 14 15 15 15 15 15 14 14 13 12 12 11 11 10 9 9 8 7 8 8 8 7 7 6
16 16 27 24 21 26 22 25 25 27 27 10 13 8 8 17 17 18 17 19 20 19 17 16 14 14 13 12 14 15 14 13 12 12 12 11 11 9 8 7 6 6 6 7 7 7 7 6 6
23 18 20 30 28 21 22 24 21 24 27 16 18 13 12 14 13 14 14 17 17 18 18 17 16 13 13 14 12 14 14 13 12 11 11 10 7 8 10 9 11 9 7 7 6 6 7 7 8
23 19 32 25 24 24 23 22 23 14 15 13 15 14 9 15 11 15 16 16 19 20 21 19 17 16 15 13 13 11 11 9 8 8 9 7 7 8 9 10 13 11 9 8 8 8 8 7 6
26 30 22 26 27 26 25 23 25 18 15 14 15 17 14 15 13 14 17 19 20 19 17 21 18 16 17 14 10 7 6 6 6 9 9 7 6 6 5 5 6 6 8 6 8 7 6 8 7
29 32 29 28 25 22 24 21 20 13 13 20 17 18 19 17 15 15 17 17 14 21 21 22 20 15 13 13 11 10 9 7 7 7 9 6 4 4 5 5 8 8 7 9 8 7 10 11 11
34 29 28 28 26 28 24 24 20 19 16 14 13 19 20 15 16 14 14 14 15 14 21 23 21 15 11 15 11 10 10 9 9 9 10 6 5 4 4 4 4 8 7 9 8 7 7 9 10
26 29 29 28 27 24 23 24 16 21 19 14 18 14 15 13 13 13 13 13 12 10 14 15 21 15 9 7 13 8 8 10 8 9 11 12 6 4 5 4 4 3 3 3 3 2 3 3 4
29 29 27 29 28 28 22 25 30 18 19 21 18 16 15 10 13 12 9 12 9 11 16 16 5 13 10 5 10 8 7 9 7 5 11 12 8 5 5 4 5 4 4 1 3 4 3 4 4
26 29 28 27 30 25 23 31 23 22 19 20 18 16 16 15 17 13 14 12 12 18 23 36 21 14 11 6 5 7 4 4 4 4 8 12 9 6 1 3 3 4 2 2 2 3 4 5 4
27 24 35 28 25 25 28 35 22 20 24 20 17 16 16 15 16 18 15 10 14 7 15 19 18 17 13 9 5 5 4 5 4 3 4 7 7 6 4 3 4 4 2 3 3 4 1 2 3
27 32 23 28 27 26 28 24 24 22 22 24 19 20 18 19 21 16 13 12 13 8 16 17 12 15 13 7 2 4 3 2 5 5 5 6 5 5 2 3 5 4 3 2 3 4 2 3 4
27 26 31 24 21 27 25 24 22 23 18 16 20 22 20 21 19 18 15 12 14 9 12 12 12 12 10 6 5 5 4 3 1 4 8 5 3 5 5 2 4 4 4 3 2 3 5 4 2
30 29 28 23 26 24 25 26 22 22 23 16 19 19 20 20 16 14 12 13 15 14 12 10 8 11 8 7 6 4 4 2 2 2 3 5 5 4 4 6 4 4 2 4 4 3 1 1 3
29 28 27 27 24 27 25 25 26 23 19 21 17 16 18 20 20 17 16 14 15 15 13 7 5 10 9 10 5 5 4 4 3 5 3 4 6 5 3 2 2 3 3 4 5 2 4 2 1
28 30 29 26 25 16 25 16 18 18 21 22 21 19 17 18 20 17 17 14 11 18 21 18 18 17 9 11 8 10 6 6 6 6 6 4 1 3 1 2 1 1 3 6 3 1 1 1 7
26 25 27 29 24 22 19 14 16 21 23 25 23 19 18 18 18 17 19 15 12 12 13 23 17 13 12 10 9 8 8 7 6 5 7 6 4 2 3 3 2 2 3 3 4 5 4 4 4
26 26 22 25 18 17 20 18 18 17 25 20 21 21 18 18 16 16 20 17 14 13 14 15 15 13 12 10 8 10 9 8 9 10 7 6 4 3 2 2 2 1 3 4 4 4 5 4 6
18 23 14 14 16 13 22 21 14 23 25 24 23 23 22 17 18 15 17 19 16 16 19 17 15 14 11 10 7 9 6 8 7 7 7 6 5 4 4 4 4 2 2 2 2 2 4 4 5
22 22 16 13 15 19 25 25 18 21 10 21 22 22 20 19 15 18 19 19 18 16 22 19 15 14 9 6 5 3 5 5 7 6 7 6 6 5 4 5 6 5 5 5 5 4 4 3 3
26 22 23 18 19 18 19 21 18 17 6 7 18 22 22 19 17 16 14 16 17 21 18 16 15 12 9 6 5 4 5 9 10 7 7 7 6 4 4 4 4 4 5 4 4 4 5 4 3
25 20 20 15 17 20 21 25 16 22 14 10 16 14 16 17 16 14 14 23 20 18 15 16 15 15 11 9 8 9 11 11 11 10 11 9 8 7 6 6 5 5 5 5 5 4 5 6 5
20 15 20 17 9 10 15 18 22 23 20 18 17 16 15 18 20 21 20 19 20 17 16 15 16 14 9 9 10 11 12 12 11 9 9 8 8 6 6 6 5 6 4 5 4 5 6 5 7
24 18 26 13 19 12 11 8 22 19 23 25 18 15 16 18 18 18 18 19 18 18 17 16 15 14 12 12 12 13 12 10 9 10 9 8 7 7 8 7 8 9 8 7 7 6 7 6 7
Wind_Direction
271 249 241 257 248 231 250 251 248 267 250 14 22 353 332 23 132 203 297 243 121 130 143 140 137 139 142 141 139 138 136 133 132 128 125 125 127 128 123 118 119 119 120 123 126 120 116 113 108
260 240 236 264 237 245 245 242 256 254 228 112 54 312 280 84 99 150 175 136 125 133 143 142 142 141 145 142 137 135 135 133 130 128 126 127 129 133 132 125 124 121 123 125 125 122 120 117 117
253 261 236 221 235 239 248 251 231 260 114 120 160 329 309 80 118 107 129 119 122 139 149 135 144 142 146 141 139 138 140 138 135 134 135 136 135 136 135 127 126 127 128 129 130 129 129 128 127
227 228 240 247 233 231 244 258 268 270 174 146 198 228 124 88 67 101 141 124 126 137 157 140 142 143 144 141 140 140 142 141 142 143 144 147 145 145 141 135 138 139 137 140 141 143 140 138 131
235 230 224 232 240 247 238 241 263 274 290 159 194 232 133 100 106 119 142 131 139 149 128 141 141 141 141 142 142 140 140 142 143 143 146 149 147 147 146 145 149 149 149 150 151 150 147 148 157
218 233 236 233 238 237 245 256 253 247 263 219 186 202 175 130 126 136 155 139 144 148 133 141 137 137 140 142 141 141 141 144 145 146 151 150 148 146 146 152 161 160 162 157 156 156 159 165 178
236 222 234 244 243 235 240 235 255 266 266 196 219 174 212 162 133 143 155 142 143 135 134 146 147 140 136 138 136 138 142 145 146 148 150 151 150 152 160 165 167 164 166 157 162 170 180 185 200
227 250 248 238 244 248 250 232 235 246 259 241 245 191 222 121 138 142 160 154 154 140 139 152 153 154 150 143 136 137 141 141 143 146 149 152 153 160 167 163 172 166 163 171 177 185 187 201 220
232 239 241 242 240 241 255 262 242 225 238 220 241 250 122 124 148 143 162 164 160 150 143 158 157 162 165 152 147 137 142 141 143 149 151 151 180 176 174 195 165 171 178 186 194 200 203 211 231
228 229 234 243 249 255 254 251 258 243 234 257 227 241 185 138 168 161 173 178 166 156 155 160 158 167 173 161 150 158 154 164 175 174 168 188 208 172 200 184 163 170 182 195 206 210 216 225 244
228 237 238 239 254 263 262 253 254 238 219 234 241 240 214 158 176 188 184 190 176 166 162 161 160 169 174 152 153 163 158 166 181 180 166 214 210 179 199 145 163 173 191 201 201 205 222 223 229
231 235 240 255 257 247 261 272 272 214 218 235 220 236 232 177 192 211 200 203 190 173 168 156 158 170 184 138 155 165 163 166 174 181 170 198 232 182 181 184 189 187 181 208 198 208 208 214 224
228 237 239 242 254 266 276 271 255 271 214 221 246 212 235 190 186 204 229 211 183 188 169 149 156 168 193 149 158 170 167 169 182 174 171 192 223 207 184 249 216 181 200 192 217 222 204 211 225
235 232 241 240 237 245 250 264 232 246 265 230 230 250 223 224 172 221 218 230 219 137 35 146 144 156 186 164 157 171 164 170 180 173 174 186 213 215 176 199 268 261 251 229 190 250 274 242 242
242 245 238 232 236 241 255 255 242 229 238 245 220 232 235 196 202 217 243 245 236 133 135 96 230 156 169 179 154 165 161 155 174 186 161 177 197 237 191 198 205 218 225 279 16 341 330 314 294
243 235 243 227 226 235 229 249 235 238 233 233 227 226 219 227 224 231 223 225 241 156 168 181 154 160 162 178 163 158 149 171 163 165 153 177 178 206 282 239 280 233 181 130 184 228 246 244 273
230 231 226 234 229 220 220 241 237 237 218 230 216 214 221 223 230 225 221 223 219 196 153 142 147 158 168 177 180 162 167 160 141 152 142 163 164 166 176 261 279 288 194 204 204 233 337 345 314
218 222 232 222 226 224 225 237 237 234 246 210 220 205 223 221 221 229 226 211 194 194 156 144 145 153 161 167 165 164 138 156 111 124 101 108 125 142 197 238 272 331 316 317 346 5 5 302 311
235 234 222 238 221 222 226 225 226 232 230 217 210 212 211 233 210 206 222 216 181 156 133 134 131 146 152 152 157 167 208 166 226 127 117 147 173 186 178 246 283 279 262 270 321 313 302 318 28
239 245 245 231 218 236 219 229 216 220 235 223 206 209 216 222 222 213 200 217 182 135 119 136 128 137 149 156 158 154 197 182 121 83 150 180 191 196 185 219 263 304 313 291 279 305 349 277 232
230 234 237 244 226 221 231 221 209 213 232 223 214 227 210 211 216 211 199 204 160 131 132 137 191 158 170 152 165 174 150 140 167 186 145 173 195 183 201 250 245 286 287 267 256 199 199 274 39
232 219 235 237 245 237 209 222 199 199 224 235 220 206 215 203 206 206 182 184 152 144 155 164 196 188 166 139 188 172 161 165 189 165 164 146 139 344 219 142 279 280 277 278 275 224 210 285 258
238 231 214 239 240 249 202 214 226 192 228 218 211 197 208 214 195 203 168 163 160 148 151 165 151 156 158 156 165 167 181 187 178 158 132 117 135 39 319 74 182 245 264 239 221 234 236 241 271
218 237 239 218 235 242 240 198 213 231 211 215 211 192 199 195 205 201 156 159 170 157 144 139 148 146 146 156 179 196 205 203 138 141 141 143 132 145 179 83 140 160 238 275 304 301 278 264 263
252 205 205 216 209 220 235 232 213 206 234 206 206 198 186 200 190 193 174 164 168 167 138 125 132 132 146 162 185 205 185 97 98 116 126 140 114 127 92 67 82 70 56 10 16 353 315 314 306
235 220 213 183 201 200 224 218 211 231 304 200 192 185 179 192 186 185 196 162 164 171 124 128 134 133 146 149 168 121 104 104 80 55 104 103 100 84 65 60 51 34 36 48 34 4 355 19 14
197 232 203 209 203 211 212 223 227 243 83 48 178 168 171 178 189 186 186 166 121 109 115 126 129 125 113 107 84 88 64 85 93 83 84 80 100 120 87 76 70 41 27 24 20 355 332 324 316
237 208 193 224 222 200 203 205 210 220 165 143 64 121 161 169 183 172 113 99 101 104 109 107 105 101 90 86 82 78 80 78 71 68 67 64 52 53 50 31 16 18 11 16 21 349 341 339 317
221 233 200 214 193 234 194 200 207 204 161 116 85 74 61 70 84 91 96 99 100 107 111 111 106 102 95 89 86 85 77 74 72 73 72 66 53 37 35 18 0 353 356 355 5 339 301 333 339
237 179 252 204 200 261 265 140 352 204 123 110 105 97 93 91 98 103 107 109 112 108 113 104 96 94 99 86 83 79 80 81 79 73 63 51 48 35 30 3 13 0 0 4 348 337 326 318 343